| time (UTC) | temp F | wind direction | speed knots | gust knots | rain 1hr in | rain 24hr in | rain mn in | humidity % | barometer mb |
| 20260503204425 | 67 | 360 | 1.7 | 1.7 | 0.00 | 0.00 | 0.00 | 47 | 1011.8 |
| 20260503202428 | 67 | 0 | 0.0 | 3.5 | 0.00 | 0.00 | 0.00 | 48 | |
| 20260503200425 | 67 | 135 | 4.3 | 1.7 | 0.00 | 0.00 | 0.00 | 47 | |
| 20260503194427 | 67 | 143 | 1.7 | 5.2 | 0.00 | 0.00 | 0.00 | 47 | 1012.3 |
| 20260503192425 | 67 | 159 | 2.6 | 3.5 | 0.00 | 0.00 | 0.00 | 45 | 1012.3 |
| 20260503190425 | 67 | 360 | 0.9 | 3.5 | 0.00 | 0.00 | 0.00 | 45 | |
| 20260503180425 | 64 | 164 | 0.0 | 0.9 | 0.00 | 0.00 | 0.00 | 55 | |
| 20260503174425 | 63 | 0 | 0.0 | 3.5 | 0.00 | 0.00 | 0.00 | 58 | |
| 20260503172427 | 63 | 0 | 0.0 | 1.7 | 0.00 | 0.00 | 0.00 | 59 | |
| 20260503170425 | 62 | 0 | 0.0 | 1.7 | 0.00 | 0.00 | 0.00 | 66 | |
| 20260503150425 | 58 | 0 | 0.0 | 0.0 | 0.00 | 0.00 | 0.00 | 66 | 1011.6 |
| 20260503130426 | 55 | 0 | 0.0 | 0.0 | 0.00 | 0.00 | 0.00 | 75 | 1010.6 |
| 20260503110425 | 55 | 0 | 0.0 | 0.0 | 0.00 | 0.00 | 0.00 | 76 | 1010.7 |
| 20260503090426 | 56 | 0 | 0.0 | 0.0 | 0.00 | 0.00 | 0.00 | 75 | 1011.3 |
| 20260503080426 | 56 | 0 | 0.0 | 0.0 | 0.00 | 0.00 | 0.00 | 74 | 1011.7 |
| 20260503072425 | 56 | 0 | 0.0 | 0.0 | 0.00 | 0.00 | 0.00 | 74 | |
| 20260503070425 | 56 | 0 | 0.0 | 0.0 | 0.00 | 0.00 | 0.00 | 73 | 1011.6 |
| 20260503054426 | 57 | 342 | 0.0 | 1.7 | 0.00 | 0.00 | 0.00 | 72 | |
| 20260503052426 | 57 | 0 | 0.0 | 0.0 | 0.00 | 0.00 | 0.00 | 71 | |
| 20260503050426 | 58 | 0 | 0.0 | 0.9 | 0.00 | 0.00 | 0.00 | 71 | 1011.5 |
| 20260503042425 | 58 | 0 | 0.0 | 1.7 | 0.00 | 0.00 | 0.00 | 70 | 1010.9 |
| 20260503040425 | 58 | 100 | 0.9 | 2.6 | 0.00 | 0.00 | 0.00 | 69 | 1010.8 |
| 20260503034426 | 59 | 112 | 0.0 | 1.7 | 0.00 | 0.00 | 0.00 | 68 | |
| 20260503032425 | 59 | 0 | 0.0 | 1.7 | 0.00 | 0.00 | 0.00 | 66 | |
| 20260503030425 | 60 | 22 | 0.0 | 0.9 | 0.00 | 0.00 | 0.00 | 65 | 1010.3 |
| 20260503024425 | 61 | 360 | 0.9 | 1.7 | 0.00 | 0.00 | 0.00 | 63 | |
| 20260503020425 | 63 | 202 | 0.9 | 2.6 | 0.00 | 0.00 | 0.00 | 62 | |
| 20260503014428 | 64 | 360 | 0.9 | 0.9 | 0.00 | 0.00 | 0.00 | 62 | |
| 20260503012425 | 65 | 360 | 1.7 | 2.6 | 0.00 | 0.00 | 0.00 | 60 | 1010.2 |
| 20260503010425 | 66 | 72 | 0.9 | 2.6 | 0.00 | 0.00 | 0.00 | 58 | |
| 20260503004426 | 67 | 40 | 0.9 | 2.6 | 0.00 | 0.00 | 0.00 | 56 | 1010.4 |
| 20260503002425 | 68 | 360 | 1.7 | 1.7 | 0.00 | 0.00 | 0.00 | 56 | 1010.3 |
| 20260503000425 | 69 | 337 | 1.7 | 1.7 | 0.00 | 0.00 | 0.00 | 54 | 1010.3 |
| 20260502234426 | 69 | 41 | 0.9 | 1.7 | 0.00 | 0.00 | 0.00 | 55 | 1010.4 |
| 20260502232432 | 69 | 135 | 1.7 | 2.6 | 0.00 | 0.00 | 0.00 | 55 | 1010.9 |
| 20260502230425 | 70 | 90 | 0.9 | 1.7 | 0.00 | 0.00 | 0.00 | 53 | 1011.2 |
| 20260502224425 | 70 | 26 | 0.9 | 1.7 | 0.00 | 0.00 | 0.00 | 54 | 1011.3 |
| 20260502222425 | 70 | 360 | 0.9 | 2.6 | 0.00 | 0.00 | 0.00 | 53 | 1011.4 |
| 20260502220425 | 72 | 37 | 0.9 | 2.6 | 0.00 | 0.00 | 0.00 | 52 | 1011.5 |
| 20260502214426 | 72 | 85 | 0.9 | 1.7 | 0.00 | 0.00 | 0.00 | 52 | 1011.5 |
| 20260502212426 | 70 | 112 | 1.7 | 1.7 | 0.00 | 0.00 | 0.00 | 55 | 1012.0 |